{"data":{"norad_id":68960,"epoch":"2026-05-25T04:00:03.998880Z","epoch_age_seconds":67399,"freshness":"FRESH","line1":"1 68960U 26099K   26145.16671295  .00104572  00000+0  18669-2 0  9990","line2":"2 68960  53.1591 270.8149 0001821  53.4740 233.6993 15.49251379  5018","mean_motion":15.49251379,"eccentricity":0.0001821,"inclination_deg":53.1591,"raan_deg":270.8149,"arg_perigee_deg":53.474,"mean_anomaly_deg":233.6993,"bstar":0.0018669,"rev_number":501,"period_min":92.94811800842,"perigee_km":417.67706819551,"apogee_km":420.15255446519,"semimajor_km":6797.0518113303,"source":"CELESTRAK","updated_at":"2026-05-25T13:38:22.073647Z"}}